Petersburg, AK

6:38 AM AKST on December 11, 2017 (GMT -0900)
Johnson Petersburg

Weather History for PAPG - April, 2013

Change the Weather History Date:

Thursday, April 11, 2013

  Actual Average Record
Temperature  
Mean Temperature 36 °F -  
Max Temperature 41 °F 44 °F 57 °F (1984)
Min Temperature 30 °F 31 °F 25 °F (1985)
Degree Days  
Heating Degree Days 30    
Moisture  
Dew Point 28 °F    
Average Humidity 72    
Maximum Humidity 87    
Minimum Humidity 53    
Precipitation  
Precipitation 0.02 in - - ()
Sea Level Pressure  
Sea Level Pressure 30.14 in    
Wind  
Wind Speed 6 mph (SSE)    
Max Wind Speed 14 mph    
Max Gust Speed 17 mph    
Visibility 9 miles    
Events      
Averages and records for this station are not official NWS values.
T = Trace of Precipitation, MM = Missing Value Source: NWS Daily Summary

Daily Weather History Graph

Daily Weather History Graph

Search for Another Location

Airport or City:

Trip Planner

Search our weather history database for the weather conditions in past years. The results will help you decide how hot, cold, wet, or windy it might be!

Date:

Astronomy

Apr. 11, 2013 Rise Set
Actual Time 5:53 AM AKDT 7:53 PM AKDT
Civil Twilight 5:13 AM AKDT 8:33 PM AKDT
Nautical Twilight 4:21 AM AKDT 9:25 PM AKDT
Astronomical Twilight 3:20 AM AKDT 10:27 PM AKDT
Moon 6:12 AM AKDT 9:58 PM AKDT
Length of Visible Light 15h 20m
Length of Day
13h 59m
New Moon, 2% of the Moon is Illuminated
Apr 11
New Moon
Apr 18
First Quarter
Apr 25
Full
May 2
Last Quarter
May 9
New

Hourly Weather History & Observations

Time (AKDT) Temp. Windchill Dew Point Humidity Pressure Visibility Wind Dir Wind Speed Gust Speed Precip Events Conditions
12:16 AM 35.6 °F 28.6 °F 26.6 °F 70% 30.15 in 7.0 mi SSW 9.2 mph - N/A   Overcast
12:36 AM 33.8 °F 28.6 °F 26.6 °F 75% 30.15 in 10.0 mi SSW 5.8 mph - N/A   Overcast
12:56 AM 35.6 °F 29.9 °F 24.8 °F 65% 30.16 in 10.0 mi SSW 6.9 mph - N/A   Overcast
1:16 AM 35.6 °F 30.7 °F 26.6 °F 70% 30.17 in 10.0 mi SSW 5.8 mph - N/A   Overcast
1:36 AM 35.6 °F 31.7 °F 26.6 °F 70% 30.18 in 10.0 mi SW 4.6 mph - N/A   Overcast
1:56 AM 35.6 °F 30.7 °F 24.8 °F 65% 30.19 in 10.0 mi SSW 5.8 mph - N/A   Mostly Cloudy
2:16 AM 35.6 °F 31.7 °F 24.8 °F 65% 30.19 in 10.0 mi SSW 4.6 mph - N/A   Mostly Cloudy
2:36 AM 35.6 °F 31.7 °F 26.6 °F 70% 30.19 in 8.0 mi South 4.6 mph - N/A   Mostly Cloudy
2:56 AM 35.6 °F 29.2 °F 24.8 °F 65% 30.20 in 10.0 mi SSW 8.1 mph - N/A   Overcast
3:16 AM 35.6 °F 29.2 °F 24.8 °F 65% 30.20 in 10.0 mi SSW 8.1 mph - N/A   Mostly Cloudy
3:36 AM 33.8 °F 29.6 °F 24.8 °F 70% 30.20 in 10.0 mi SSW 4.6 mph - N/A   Partly Cloudy
3:56 AM 33.8 °F 30.8 °F 24.8 °F 70% 30.21 in 10.0 mi South 3.5 mph - N/A   Clear
4:16 AM 33.8 °F 29.6 °F 24.8 °F 70% 30.21 in 10.0 mi South 4.6 mph - N/A   Partly Cloudy
4:36 AM 30.2 °F - 24.8 °F 80% 30.21 in 10.0 mi Calm Calm - N/A   Mostly Cloudy
4:56 AM 32.0 °F - 26.6 °F 80% 30.21 in 10.0 mi Calm Calm - N/A   Overcast
5:36 AM 33.8 °F - 26.6 °F 75% 30.22 in 10.0 mi Calm Calm - N/A   Overcast
5:56 AM 33.8 °F - 28.4 °F 81% 30.23 in 10.0 mi Calm Calm - N/A   Overcast
6:16 AM 33.8 °F - 26.6 °F 75% 30.23 in 10.0 mi Calm Calm - N/A   Overcast
6:36 AM 33.8 °F - 26.6 °F 75% 30.23 in 10.0 mi Calm Calm - N/A   Overcast
7:16 AM 33.8 °F - 28.4 °F 81% 30.23 in 2.5 mi Calm Calm - N/A   Mostly Cloudy
7:36 AM 33.8 °F 27.0 °F 28.4 °F 81% 30.23 in 4.0 mi South 8.1 mph - N/A   Mostly Cloudy
7:56 AM 33.8 °F 28.6 °F 26.6 °F 75% 30.24 in 10.0 mi SSW 5.8 mph - N/A   Mostly Cloudy
8:16 AM 35.6 °F 29.2 °F 26.6 °F 70% 30.24 in 10.0 mi SSE 8.1 mph - N/A   Mostly Cloudy
8:36 AM 35.6 °F 29.9 °F 26.6 °F 70% 30.24 in 10.0 mi South 6.9 mph - N/A   Mostly Cloudy
8:56 AM 35.6 °F 30.7 °F 26.6 °F 70% 30.24 in 10.0 mi South 5.8 mph - N/A   Mostly Cloudy
9:16 AM 35.6 °F 29.9 °F 28.4 °F 75% 30.24 in 10.0 mi SSE 6.9 mph - N/A   Mostly Cloudy
9:36 AM 35.6 °F 29.2 °F 26.6 °F 70% 30.24 in 10.0 mi South 8.1 mph - N/A   Mostly Cloudy
9:56 AM 37.4 °F 31.4 °F 26.6 °F 65% 30.25 in 10.0 mi South 8.1 mph - N/A   Mostly Cloudy
10:16 AM 35.6 °F 29.9 °F 30.2 °F 81% 30.25 in 10.0 mi East 6.9 mph - N/A   Mostly Cloudy
10:36 AM 37.4 °F 32.8 °F 30.2 °F 75% 30.24 in 10.0 mi East 5.8 mph - N/A   Mostly Cloudy
10:56 AM 37.4 °F 32.1 °F 28.4 °F 70% 30.24 in 7.0 mi South 6.9 mph - N/A   Mostly Cloudy
11:16 AM 37.4 °F - 30.2 °F 75% 30.24 in 10.0 mi Calm Calm - N/A   Mostly Cloudy
11:36 AM 39.2 °F 33.0 °F 28.4 °F 65% 30.22 in 10.0 mi SSE 9.2 mph - N/A   Mostly Cloudy
11:56 AM 39.2 °F 33.0 °F 26.6 °F 61% 30.22 in 10.0 mi SSE 9.2 mph - N/A   Mostly Cloudy
12:16 PM 39.2 °F 37.0 °F 26.6 °F 61% 30.21 in 10.0 mi SSW 3.5 mph - N/A   Mostly Cloudy
12:36 PM 41.0 °F 33.5 °F 24.8 °F 53% 30.22 in 10.0 mi South 13.8 mph 17.3 mph N/A   Mostly Cloudy
12:56 PM 37.4 °F 29.3 °F 26.6 °F 65% 30.22 in 7.0 mi SSW 12.7 mph 17.3 mph N/A   Mostly Cloudy
1:16 PM 37.4 °F - 30.2 °F 75% 30.22 in 7.0 mi Calm Calm - N/A   Mostly Cloudy
1:36 PM 39.2 °F 35.9 °F 26.6 °F 61% 30.21 in 7.0 mi SW 4.6 mph - N/A   Mostly Cloudy
1:56 PM 39.2 °F 35.9 °F 24.8 °F 56% 30.21 in 10.0 mi ESE 4.6 mph - N/A   Mostly Cloudy
2:16 PM 37.4 °F 32.8 °F 26.6 °F 65% 30.20 in 10.0 mi NE 5.8 mph - N/A   Mostly Cloudy
2:36 PM 37.4 °F - 30.2 °F 75% 30.19 in 10.0 mi Calm Calm - N/A   Mostly Cloudy
2:56 PM 37.4 °F 32.1 °F 30.2 °F 75% 30.20 in 3.0 mi SSW 6.9 mph - N/A   Overcast
3:16 PM 37.4 °F 31.4 °F 28.4 °F 70% 30.18 in 3.0 mi SE 8.1 mph - N/A   Overcast
3:36 PM 37.4 °F 34.9 °F 28.4 °F 70% 30.17 in 3.0 mi NNW 3.5 mph - N/A   Overcast
3:56 PM 37.4 °F 34.9 °F 30.2 °F 75% 30.16 in 10.0 mi East 3.5 mph - N/A   Mostly Cloudy
4:16 PM 39.2 °F 33.6 °F 26.6 °F 61% 30.15 in 10.0 mi SW 8.1 mph - N/A   Mostly Cloudy
4:36 PM 39.2 °F 35.0 °F 30.2 °F 70% 30.13 in 10.0 mi NE 5.8 mph - N/A   Mostly Cloudy
4:56 PM 37.4 °F 32.1 °F 30.2 °F 75% 30.12 in 10.0 mi ENE 6.9 mph - N/A   Mostly Cloudy
5:16 PM 39.2 °F 33.6 °F 28.4 °F 65% 30.11 in 10.0 mi ESE 8.1 mph - N/A   Mostly Cloudy
5:36 PM 39.2 °F 35.0 °F 28.4 °F 65% 30.09 in 10.0 mi East 5.8 mph - N/A   Mostly Cloudy
5:56 PM 39.2 °F 37.0 °F 28.4 °F 65% 30.08 in 10.0 mi East 3.5 mph - N/A   Overcast
6:16 PM 39.2 °F 37.0 °F 28.4 °F 65% 30.07 in 10.0 mi ESE 3.5 mph - N/A   Overcast
6:36 PM 37.4 °F 32.1 °F 28.4 °F 70% 30.06 in 10.0 mi East 6.9 mph - N/A   Overcast
6:56 PM 37.4 °F 33.8 °F 28.4 °F 70% 30.05 in 10.0 mi SSE 4.6 mph - N/A   Overcast
7:16 PM 35.6 °F 30.7 °F 30.2 °F 81% 30.03 in 10.0 mi East 5.8 mph - N/A   Overcast
7:36 PM 35.6 °F 29.9 °F 30.2 °F 81% 30.02 in 10.0 mi ESE 6.9 mph - N/A   Overcast
7:56 PM 35.6 °F 31.7 °F 30.2 °F 81% 30.01 in 10.0 mi West 4.6 mph - N/A   Overcast
8:16 PM 35.6 °F - 30.2 °F 81% 29.99 in 10.0 mi Calm Calm - N/A   Overcast
8:36 PM 35.6 °F 29.9 °F 30.2 °F 81% 29.98 in 10.0 mi East 6.9 mph - N/A   Overcast
8:56 PM 35.6 °F 29.2 °F 30.2 °F 81% 29.97 in 10.0 mi East 8.1 mph - N/A   Overcast
9:16 PM 35.6 °F 28.6 °F 30.2 °F 81% 29.96 in 10.0 mi ESE 9.2 mph 16.1 mph N/A   Overcast
9:36 PM 35.6 °F 29.2 °F 30.2 °F 81% 29.95 in 10.0 mi ESE 8.1 mph - N/A   Overcast
9:56 PM 33.8 °F 26.4 °F 30.2 °F 87% 29.94 in 7.0 mi East 9.2 mph - 0.01 in   Overcast
10:16 PM 33.8 °F 28.6 °F 30.2 °F 87% 29.92 in 4.0 mi ESE 5.8 mph - N/A   Overcast
10:36 PM 35.6 °F 28.0 °F 30.2 °F 81% 29.90 in 6.0 mi ESE 10.4 mph 17.3 mph 0.01 in   Overcast
10:56 PM 35.6 °F 28.0 °F 30.2 °F 81% 29.89 in 10.0 mi East 10.4 mph - 0.01 in   Overcast
11:16 PM 35.6 °F 28.0 °F 28.4 °F 75% 29.87 in 10.0 mi East 10.4 mph - N/A   Overcast
11:36 PM 35.6 °F 28.6 °F 28.4 °F 75% 29.86 in 10.0 mi East 9.2 mph - N/A   Overcast
11:56 PM 35.6 °F 28.6 °F 28.4 °F 75% 29.84 in 10.0 mi East 9.2 mph - N/A   Overcast